OM5AST-13 Weather Reports


Display with metric or nautical units.
time (UTC)temp
F
wind
direction
speed
MPH
gust
MPH
rain 1hr
in
rain 24hr
in
rain mn
in
humidity
%
barometer
mb
20260507040355 60 0 0.0 0.0 0.00 0.00 0.00 66
20260507034355 61 0 0.0 0.0 0.00 0.00 0.00 66
20260507032355 61 0 0.0 0.0 0.00 0.00 0.00 65
20260507030355 62 0 0.0 0.0 0.00 0.00 0.00 64
20260507024355 62 0 0.0 0.0 0.00 0.00 0.00 64
20260507022355 62 0 0.0 0.0 0.00 0.00 0.00 64
20260507020355 62 0 0.0 0.0 0.00 0.00 0.00 66
20260507014355 62 0 0.0 0.0 0.00 0.00 0.00 66
20260507012355 62 0 0.0 0.0 0.00 0.00 0.00 67
20260507010355 62 0 0.0 0.0 0.00 0.00 0.00 66
20260507004355 62 0 0.0 0.0 0.00 0.00 0.00 67
20260507002355 62 0 0.0 0.0 0.00 0.00 0.00 67
20260507000355 62 0 0.0 0.0 0.00 0.00 0.00 66
20260506234355 62 0 0.0 0.0 0.00 0.00 0.00 66
20260506232355 63 0 0.0 0.0 0.00 0.00 0.00 66
20260506230355 63 0 0.0 0.0 0.00 0.00 0.00 66
20260506224355 63 0 0.0 0.0 0.00 0.00 0.00 66
20260506222355 64 0 0.0 0.0 0.00 0.00 0.00 66
20260506220355 64 0 0.0 0.0 0.00 0.00 0.00 65
20260506214356 64 0 0.0 0.0 0.00 0.00 0.00 64
20260506212355 64 0 0.0 0.0 0.00 0.00 0.00 64
20260506210355 65 0 0.0 0.0 0.00 0.00 0.00 63
20260506204355 65 0 0.0 0.0 0.00 0.00 0.00 61
20260506202355 66 0 0.0 0.0 0.00 0.00 0.00 60
20260506200355 66 0 0.0 0.0 0.00 0.00 0.00 59
20260506194355 67 0 0.0 0.0 0.00 0.00 0.00 58
20260506192355 67 0 0.0 0.0 0.00 0.00 0.00 56
20260506190355 68 0 0.0 0.0 0.00 0.00 0.00 55
20260506184355 68 0 0.0 0.0 0.00 0.00 0.00 54
20260506182355 69 0 0.0 0.0 0.00 0.00 0.00 53
20260506180355 70 0 0.0 0.0 0.00 0.00 0.00 52
20260506174355 71 0 0.0 0.0 0.00 0.00 0.00 49
20260506172355 73 0 0.0 0.0 0.00 0.00 0.00 46
20260506170355 74 0 0.0 0.0 0.00 0.00 0.00 45
20260506164355 76 0 0.0 0.0 0.00 0.00 0.00 42
20260506162355 79 0 0.0 0.0 0.00 0.00 0.00 37
20260506160355 79 0 0.0 0.0 0.00 0.00 0.00 37
20260506154355 79 0 0.0 0.0 0.00 0.00 0.00 39
20260506152355 78 0 0.0 0.0 0.00 0.00 0.00 38
20260506150355 78 0 0.0 0.0 0.00 0.00 0.00 38
20260506144355 77 0 0.0 0.0 0.00 0.00 0.00 40
20260506142355 77 0 0.0 0.0 0.00 0.00 0.00 40
20260506140355 77 0 0.0 0.0 0.00 0.00 0.00 39
20260506134355 78 0 0.0 0.0 0.00 0.00 0.00 39
20260506132355 79 0 0.0 0.0 0.00 0.00 0.00 37
20260506130355 80 0 0.0 0.0 0.00 0.00 0.00 36
20260506124355 80 0 0.0 0.0 0.00 0.00 0.00 36
20260506122355 78 0 0.0 0.0 0.00 0.00 0.00 38
20260506120356 77 0 0.0 0.0 0.00 0.00 0.00 41
20260506114355 77 0 0.0 0.0 0.00 0.00 0.00 43
20260506112356 75 0 0.0 0.0 0.00 0.00 0.00 45
20260506110355 75 0 0.0 0.0 0.00 0.00 0.00 48
20260506104355 74 0 0.0 0.0 0.00 0.00 0.00 49
20260506102355 73 0 0.0 0.0 0.00 0.00 0.00 49
20260506100357 73 0 0.0 0.0 0.00 0.00 0.00 51
20260506094355 73 0 0.0 0.0 0.00 0.00 0.00 51
20260506092355 72 0 0.0 0.0 0.00 0.00 0.00 53
20260506090355 72 0 0.0 0.0 0.00 0.00 0.00 52
20260506084355 71 0 0.0 0.0 0.00 0.00 0.00 54
20260506082355 70 0 0.0 0.0 0.00 0.00 0.00 56
20260506080355 69 0 0.0 0.0 0.00 0.00 0.00 56
20260506072355 68 0 0.0 0.0 0.00 0.00 0.00 59
20260506070355 66 0 0.0 0.0 0.00 0.00 0.00 60
20260506062356 64 0 0.0 0.0 0.00 0.00 0.00 63
20260506060355 63 0 0.0 0.0 0.00 0.00 0.00 64
20260506050355 61 0 0.0 0.0 0.00 0.00 0.00 67
20260506044355 60 0 0.0 0.0 0.00 0.00 0.00 69
20260506042358 59 0 0.0 0.0 0.00 0.00 0.00 70